NOAA-19
1 33591U 09005A 10034.83727656 .00000132 00000-0 97338-4 0 04284
2 33591 098.7756 339.8864 0013558 309.6020 050.3980 14.11021702051109
HUBBLE
1 20580U 90037B 10034.26164458 .00000371 00000-0 15592-4 0 5126
2 20580 028.4698 034.1064 0003637 214.2224 145.8149 15.00886988884609
ISS
1 25544U 98067A 10036.02140206 .00016750 00000-0 11062-3 0 5173
2 25544 051.6445 189.3027 0010719 284.4187 177.1299 15.75678155642658
CO-58
1 28895U 05043F 10034.67119931 .00000030 00000-0 15744-4 0 05050
2 28895 098.0327 283.4278 0017957 346.9978 013.0763 14.59840793227508
FALCON
1 30776U 07006E 10035.67636338 .00000476 00000-0 37282-4 0 7583
2 30776 035.4325 128.6694 0000255 052.8860 307.1879 15.03445489160100
MAST
1 31126U 07012K 10034.81589486 -.00000088 00000-0 -91492-5 0 07930
2 31126 097.9589 083.6040 0093379 280.8106 078.2527 14.53549527148682
CAPE1
1 31130U 07012P 10035.56470186 .00000109 00000-0 36097-4 0 8060
2 31130 097.9548 081.9921 0101643 285.5880 073.4136 14.52130500148416
COMPASS
1 32787U 08021E 10034.19766702 .00000137 00000-0 24103-4 0 05872
2 32787 097.9109 100.7052 0015879 005.5705 354.5727 14.81746885095651
AAUSAT2
1 32788U 08021F 10034.68594279 .00000667 00000-0 90891-4 0 5803
2 32788 097.9116 101.2882 0015807 005.1360 354.9984 14.81883217 95730
DO-64
1 32789U 08021G 10034.70427279 .00000580 00000-0 79850-4 0 05987
2 32789 097.9166 101.6425 0015549 002.9906 357.1365 14.81945053095732
CO-66
1 32791U 08021J 10034.20107846 .00000056 00000-0 13897-4 0 05785
2 32791 097.9120 100.7359 0016319 003.8058 356.3313 14.81554326095615
RS-30
1 32953U 08025A 10034.75829675 .00000010 00000-0 00000-0 0 05182
2 32953 082.5027 112.6590 0019440 037.1644 323.0779 12.43003120077163
TACSAT-3
1 35001U 09028A 10034.87632398 .00003320 00000-0 86027-4 0 02226
2 35001 040.4568 294.0130 0021243 084.8456 275.4800 15.40164879040065
PHARMSAT
1 35002U 09028B 10034.88136422 .00003501 00000-0 88269-4 0 1977
2 35002 040.4703 292.5339 0024323 088.6161 271.7455 15.40835761 40079
HAWKSAT1
1 35003U 09028C 10035.83876878 .00007364 00000-0 17008-3 0 2064
2 35003 040.4620 284.5917 0022981 103.4261 256.9116 15.42415581 40251
CP6
1 35004U 09028D 10034.91512608 .00007903 00000-0 18035-3 0 02049
2 35004 040.4631 289.9263 0022522 096.8618 263.4794 15.42713698040108
AEROCUB3
1 35005U 09028E 10035.84555535 .00016759 00000-0 37003-3 0 2077
2 35005 040.4732 284.9414 0020857 101.3265 258.9915 15.43207406 40248
DRAGNSAT
1 35690U 09038B 10035.84316292 .00122123 17310-4 26817-3 0 2310
2 35690 051.6333 173.6506 0000856 063.4055 296.7013 15.97911071 30064
POLLUX
1 35693U 09038E 10035.85532384 .00080118 13754-4 20946-3 0 2262
2 35693 051.6368 175.2834 0002173 005.1054 355.0006 15.94990546 30010
CASTOR
1 35694U 09038F 10035.57724388 .00027873 00000-0 11063-3 0 1803
2 35694 051.6378 181.0562 0003010 035.9653 324.1800 15.86479234 29915
METEOR-M
1 35865U 09049A 10035.69475036 .00000176 00000-0 10000-3 0 1190
2 35865 098.7780 090.3267 0003062 040.9093 319.2260 14.21828576 19895
RS-38
1 35869U 09049E 10034.83581886 .00000176 00000-0 10000-3 0 1213
2 35869 098.7773 089.4916 0005221 036.6579 323.4899 14.21974950 19771
